, OR

(GMT )
Tillamook

Weather History for KTMK - January, 2014

Change the Weather History Date:

Sunday, January 12, 2014

  Actual Average Record
Temperature  
Mean Temperature 47 °F -  
Max Temperature 50 °F - - ()
Min Temperature 44 °F - - ()
Degree Days  
Heating Degree Days 18    
Moisture  
Dew Point 47 °F    
Average Humidity 95    
Maximum Humidity 100    
Minimum Humidity 71    
Precipitation  
Precipitation 0.67 in - - ()
Sea Level Pressure  
Sea Level Pressure 30.28 in    
Wind  
Wind Speed 10 mph (SW)    
Max Wind Speed 28 mph    
Max Gust Speed 33 mph    
Visibility 4 miles    
Events Rain    
Averages and records for this station are not official NWS values.
T = Trace of Precipitation, MM = Missing Value Source: NWS Daily Summary

Daily Weather History Graph

Daily Weather History Graph

Search for Another Location

Airport or City:

Trip Planner

Search our weather history database for the weather conditions in past years. The results will help you decide how hot, cold, wet, or windy it might be!

Date:

Astronomy

Jan. 12, 2014 Rise Set
Actual Time 8:52 AM MST 5:54 PM MST
Civil Twilight 8:19 AM MST 6:28 PM MST
Nautical Twilight 7:42 AM MST 7:05 PM MST
Astronomical Twilight 7:07 AM MST 7:40 PM MST
Moon 3:28 PM MST (1/12) 5:55 AM MST (1/12)
Length of Visible Light 10h 08m
Length of Day
9h 02m
Waxing Gibbous, 90% of the Moon is Illuminated
Jan 12
Waxing Gibbous
Jan 15
Full
Jan 23
Last Quarter
Jan 30
New
Feb 6
First Quarter

Hourly Weather History & Observations

Time (MST) Temp. Windchill Dew Point Humidity Pressure Visibility Wind Dir Wind Speed Gust Speed Precip Events Conditions
12:15 AM 46.4 °F 41.1 °F 37.4 °F 71% 30.08 in 7.0 mi West 11.5 mph 17.3 mph N/A   Mostly Cloudy
12:35 AM 46.4 °F 43.5 °F 37.4 °F 71% 30.08 in 7.0 mi West 5.8 mph - N/A   Mostly Cloudy
12:55 AM 44.6 °F 39.2 °F 41.0 °F 87% 30.09 in 4.0 mi West 10.4 mph - 0.02 in Rain Light Rain
1:15 AM 46.4 °F 42.9 °F 42.8 °F 87% 30.10 in 5.0 mi West 6.9 mph - N/A   Overcast
1:35 AM 46.4 °F 42.4 °F 41.0 °F 81% 30.11 in 5.0 mi West 8.1 mph - N/A   Haze
1:55 AM 44.6 °F 39.2 °F 41.0 °F 87% 30.12 in 7.0 mi WSW 10.4 mph - 0.01 in   Mostly Cloudy
2:15 AM 46.4 °F 42.9 °F 41.0 °F 81% 30.13 in 7.0 mi WSW 6.9 mph - N/A   Mostly Cloudy
2:35 AM 46.4 °F 45.2 °F 41.0 °F 81% 30.13 in 7.0 mi WSW 3.5 mph - N/A   Overcast
2:55 AM 46.4 °F 45.2 °F 41.0 °F 81% 30.14 in 7.0 mi SW 3.5 mph - N/A   Overcast
3:15 AM 46.4 °F 41.9 °F 41.0 °F 81% 30.14 in 7.0 mi WSW 9.2 mph 12.7 mph 0.01 in Rain Light Rain
3:35 AM 44.6 °F - 42.8 °F 93% 30.16 in 5.0 mi Calm Calm - 0.01 in Rain Light Rain
3:55 AM 44.6 °F - 42.8 °F 93% 30.16 in 7.0 mi Calm Calm - 0.01 in   Overcast
4:15 AM 46.4 °F 45.2 °F 42.8 °F 87% 30.17 in 5.0 mi SSW 3.5 mph - N/A   Overcast
4:35 AM 46.4 °F 41.1 °F 41.0 °F 81% 30.17 in 7.0 mi SW 11.5 mph 18.4 mph 0.01 in Rain Light Rain
4:55 AM 44.6 °F 43.1 °F 41.0 °F 87% 30.16 in 5.0 mi WSW 3.5 mph - 0.04 in Rain Rain
5:15 AM 44.6 °F 38.4 °F 42.8 °F 93% 30.17 in 7.0 mi SW 12.7 mph - 0.02 in Rain Light Rain
5:35 AM 46.4 °F 41.5 °F 41.0 °F 81% 30.17 in 7.0 mi SW 10.4 mph - 0.03 in Rain Light Rain
5:55 AM 44.6 °F 39.2 °F 41.0 °F 87% 30.17 in 7.0 mi SSW 10.4 mph 23.0 mph 0.06 in Rain Light Rain
6:15 AM 44.6 °F 38.4 °F 41.0 °F 87% 30.18 in 7.0 mi SSW 12.7 mph 23.0 mph 0.01 in Rain Light Rain
6:35 AM 44.6 °F 37.4 °F 41.0 °F 87% 30.18 in 7.0 mi SW 16.1 mph 19.6 mph 0.04 in Rain Light Rain
6:55 AM 44.6 °F 40.7 °F 42.8 °F 93% 30.18 in 7.0 mi South 6.9 mph - 0.05 in Rain Light Rain
7:15 AM 44.6 °F 41.4 °F 42.8 °F 93% 30.17 in 7.0 mi South 5.8 mph - 0.01 in Rain Light Rain
7:35 AM 44.6 °F 42.2 °F 44.6 °F 100% 30.16 in 7.0 mi SSW 4.6 mph - 0.03 in Rain Rain
7:55 AM 44.6 °F 39.7 °F 44.6 °F 100% 30.16 in 4.0 mi SSW 9.2 mph - 0.07 in Rain Rain
8:15 AM 46.4 °F 38.7 °F 46.4 °F 100% 30.15 in 3.0 mi South 20.7 mph 29.9 mph 0.02 in Rain Rain
8:35 AM 46.4 °F 37.5 °F 46.4 °F 100% 30.14 in 4.0 mi South 27.6 mph 33.4 mph 0.05 in Rain Light Rain
8:55 AM 46.4 °F 39.0 °F 46.4 °F 100% 30.16 in 4.0 mi SSW 19.6 mph 33.4 mph 0.08 in Rain Rain
9:15 AM 50.0 °F - 48.2 °F 94% 30.18 in 5.0 mi SW 18.4 mph 21.9 mph 0.03 in Rain Rain
9:35 AM 50.0 °F - 50.0 °F 100% 30.19 in 5.0 mi SW 15.0 mph 21.9 mph 0.05 in Rain Light Rain
9:55 AM 50.0 °F - 50.0 °F 100% 30.21 in 2.5 mi WSW 12.7 mph 18.4 mph 0.09 in Rain Light Rain
10:15 AM 50.0 °F - 50.0 °F 100% 30.23 in 2.0 mi WSW 12.7 mph 25.3 mph 0.02 in Rain Rain
10:35 AM 50.0 °F - 50.0 °F 100% 30.24 in 1.0 mi WSW 10.4 mph 18.4 mph 0.14 in   Overcast
10:55 AM 50.0 °F - 50.0 °F 100% 30.26 in 2.5 mi WSW 13.8 mph - 0.18 in Rain Light Rain
11:15 AM 50.0 °F - 50.0 °F 100% 30.27 in 3.0 mi WSW 10.4 mph 21.9 mph N/A   Drizzle
11:35 AM 50.0 °F - 50.0 °F 100% 30.28 in 2.0 mi WSW 12.7 mph 18.4 mph N/A Rain Light Rain
11:55 AM 50.0 °F - 50.0 °F 100% 30.29 in 2.5 mi WSW 12.7 mph 20.7 mph 0.01 in Rain Rain
12:15 PM 50.0 °F - 50.0 °F 100% 30.29 in 3.0 mi WSW 11.5 mph 17.3 mph N/A   Overcast
12:35 PM 50.0 °F - 50.0 °F 100% 30.29 in 3.0 mi WSW 13.8 mph - N/A   Overcast
12:55 PM 50.0 °F - 50.0 °F 100% 30.30 in 4.0 mi WSW 13.8 mph 19.6 mph N/A   Overcast
1:15 PM 50.0 °F - 50.0 °F 100% 30.30 in 4.0 mi WSW 13.8 mph 18.4 mph N/A   Overcast
1:35 PM 50.0 °F - 50.0 °F 100% 30.30 in 4.0 mi WSW 11.5 mph 17.3 mph N/A   Overcast
1:55 PM 50.0 °F - 50.0 °F 100% 30.31 in 4.0 mi WSW 10.4 mph - N/A   Overcast
2:15 PM 50.0 °F - 50.0 °F 100% 30.31 in 4.0 mi WSW 10.4 mph - N/A   Overcast
2:35 PM 50.0 °F - 50.0 °F 100% 30.31 in 3.0 mi WSW 12.7 mph - N/A   Overcast
2:55 PM 50.0 °F - 50.0 °F 100% 30.31 in 3.0 mi WSW 13.8 mph 20.7 mph N/A   Overcast
3:15 PM 50.0 °F - 50.0 °F 100% 30.32 in 2.5 mi West 6.9 mph 17.3 mph N/A   Overcast
3:35 PM 50.0 °F - 50.0 °F 100% 30.33 in 3.0 mi WSW 11.5 mph - N/A   Overcast
3:55 PM 50.0 °F - 50.0 °F 100% 30.33 in 2.0 mi WSW 10.4 mph - 0.01 in   Light Drizzle
4:15 PM 50.0 °F - 50.0 °F 100% 30.33 in 1.8 mi WSW 11.5 mph - N/A Rain Rain
4:35 PM 50.0 °F - 50.0 °F 100% 30.35 in 2.0 mi WSW 11.5 mph 17.3 mph 0.01 in Rain Light Rain
4:55 PM 50.0 °F - 50.0 °F 100% 30.36 in 1.5 mi WSW 10.4 mph - 0.02 in Rain Light Rain
5:15 PM 50.0 °F - 50.0 °F 100% 30.37 in 1.5 mi WSW 9.2 mph 17.3 mph 0.01 in Rain Rain
5:35 PM 50.0 °F - 50.0 °F 100% 30.37 in 1.2 mi WSW 11.5 mph 17.3 mph 0.02 in Rain Light Rain
5:55 PM 50.0 °F - 50.0 °F 100% 30.38 in 4.0 mi West 13.8 mph 18.4 mph 0.02 in   Overcast
6:15 PM 50.0 °F - 50.0 °F 100% 30.40 in 3.0 mi WSW 6.9 mph - N/A   Drizzle
6:35 PM 50.0 °F - 50.0 °F 100% 30.40 in 4.0 mi WSW 5.8 mph - N/A   Overcast
6:55 PM 50.0 °F - 50.0 °F 100% 30.40 in 4.0 mi SW 9.2 mph - N/A   Overcast
7:15 PM 50.0 °F - 50.0 °F 100% 30.41 in 5.0 mi WSW 11.5 mph - N/A   Overcast
7:35 PM 50.0 °F - 50.0 °F 100% 30.42 in 5.0 mi SW 6.9 mph 16.1 mph N/A   Overcast
7:55 PM 50.0 °F - 50.0 °F 100% 30.42 in 5.0 mi West 9.2 mph - N/A   Overcast
8:15 PM 50.0 °F - 50.0 °F 100% 30.43 in 5.0 mi WSW 6.9 mph - N/A   Overcast
8:35 PM 50.0 °F - 50.0 °F 100% 30.43 in 5.0 mi WSW 9.2 mph - N/A   Overcast
8:55 PM 50.0 °F - 50.0 °F 100% 30.44 in 5.0 mi WSW 9.2 mph - N/A   Overcast
9:15 PM 50.0 °F - 50.0 °F 100% 30.45 in 5.0 mi WSW 10.4 mph 16.1 mph N/A   Overcast
9:35 PM 50.0 °F - 50.0 °F 100% 30.45 in 5.0 mi SW 12.7 mph - N/A   Overcast
9:55 PM 50.0 °F - 50.0 °F 100% 30.46 in 5.0 mi SW 4.6 mph - N/A   Overcast
10:15 PM 50.0 °F - 50.0 °F 100% 30.48 in 5.0 mi WSW 4.6 mph - N/A   Overcast
10:35 PM 50.0 °F - 50.0 °F 100% 30.48 in 5.0 mi SW 10.4 mph - N/A   Overcast
10:55 PM 50.0 °F - 50.0 °F 100% 30.49 in 5.0 mi SW 9.2 mph - N/A   Drizzle
11:15 PM 50.0 °F - 48.2 °F 94% 30.50 in 5.0 mi SW 9.2 mph - N/A   Overcast
11:35 PM 50.0 °F - 48.2 °F 94% 30.51 in 5.0 mi SW 8.1 mph - N/A   Overcast
11:55 PM 50.0 °F - 50.0 °F 100% 30.51 in 4.0 mi SW 4.6 mph - N/A   Overcast